Location: Oakhurst
(33.6448°N, 111.9543°W)
Time: 09:08:41
(UTC+00:00)

Envisat - Pass Details

Date: 17 May 2021
Orbit: 764 x 766 km, 98.1° (Epoch: 21 June)

Event Time Altitude Azimuth Distance (km) Brightness Sun altitude
Rises 11:54:36 0° 29° (NNE) 3,234 7.4 -6.6°
Reaches altitude 10° 11:57:25 10° 45° (NE) 2,303 7.0 -6.1°
Maximum altitude 12:01:17 22° 95° (E) 1,637 5.6 -5.4°
Drops below altitude 10° 12:05:07 10° 145° (SE) 2,292 5.6 -4.7°
Sets 12:07:55 0° 160° (SSE) 3,213 6.2 -4.1°
